軌道要素
Epoch 2023 June 25.0 TT = JDT 2460120.5
T 2023 July 5.96264 TT MPCW
q 3.0342479 (2000.0) P Q
n 0.11602771 Peri. 189.13965 +0.84549528 +0.50120000
a 4.1632093 Node 139.03845 -0.47044976 +0.86237355
e 0.2711757 Incl. 16.32061 -0.25261581 +0.07148721
P 8.49
From 185 observations 2006 Aug. 30-2015 Nov. 10, mean residual 0".7.
Nongravitational parameters Y1 = -3.43, Y2 = -0.7281.
|